Погода в Свордсе

Ирландия     53°27′37″N   6°13′32″W
темп.,
°C
ветер,
м/с
пор.,
м/с
влажн.,
%
обл.,
%
осадки,
мм/ч
давл.,
гПа
погр.,
м
8 мая, сб
сб801:00+7вюв81263100 0.0 10071098
04:00+6вюв101593100 3.1 1001872
07:00+7вюв101798100 13.8 994998
10:00+11ююз41196100 0.9 992442
13:00+15юз697542 1.4 9921197
16:00+17юз6958100 0.1 9911899
19:00+13ю5971100 0.1 991680
22:00+10ю4785100 0.0 991135
9 мая, вс
вс901:00+7ю3593100 0.0 99097
04:00+8ююв4786100 0.0 988136
07:00+11ю61073100 0.0 9871007
10:00+12ю8137279 0.2 9861451
13:00+13ю9147270 0.6 9861541
16:00+13ююв9137886 0.3 9861319
19:00+12ю7137482 0.4 9861138
22:00+10ю5107848 0.0 987328
10 мая, пн
пн1001:00+9ююв6117997 0.0 988423
04:00+10ююв6107696 0.0 987937
07:00+10ююв598499 0.0 987743
10:00+11ююв6108397 0.1 988959
13:00+13ююв687767 0.9 9881117
16:00+11ююз5889100 3.5 990640
19:00+9ююз61289100 9.7 993817
22:00+8ююз61381100 0.5 997628
11 мая, вт
вт1101:00+6ю48832 0.5 999192
04:00+5ююв46860 0.0 1000130
07:00+7ююв59890 0.0 1001412
10:00+11ююв68691 0.0 10021188
13:00+12юв896532 0.1 10031083
16:00+12юв89665 0.2 1003701
19:00+10юв58745 0.2 1004573
22:00+8в488994 0.0 1004160
12 мая, ср
ср1201:00+8вюв2695100 1.8 1004256
04:00+8ссв3698100 9.3 1003244
07:00+8св6997100 12.0 1003569
10:00+9св589099 0.5 1004556
13:00+9ссв4493100 0.6 1004448
16:00+10ссв339288 0.1 1004369
19:00+9ссв3596100 0.5 1005352
22:00+8с129682 0.1 100654